FW8178 Weather Reports


time (UTC)temp
C
wind
direction
speed
KPH
gust
KPH
rain 1hr
cm
rain 24hr
cm
rain mn
cm
humidity
%
barometer
mb
20260504081516 17 76 1.6 4.8 0.00 0.00 0.00 94 1011.1
20260504050021 16 68 0.0 3.2 0.00 0.00 0.00 95 1010.6
20260504044529 16 67 0.0 4.8 0.00 0.00 0.00 95 1010.5
20260504043029 16 69 1.6 6.4 0.00 0.00 0.00 95 1010.4
20260504041518 16 81 4.8 6.4 0.00 0.00 0.00 95 1010.4
20260504040019 16 84 3.2 4.8 0.00 0.00 0.00 95 1010.5
20260504034514 16 84 1.6 4.8 0.00 0.00 0.00 95 1010.5
20260504033012 16 84 1.6 4.8 0.00 0.00 0.00 95 1010.7
20260504031511 16 81 1.6 6.4 0.00 0.00 0.00 95 1010.8
20260504030045 16 98 4.8 9.7 0.00 0.00 0.00 94 1011.0
20260504024536 16 78 4.8 8.0 0.00 0.00 0.00 95 1011.0
20260504023032 16 50 3.2 6.4 0.00 0.00 0.00 94 1011.1
20260504021535 17 50 6.4 9.7 0.00 0.00 0.00 94 1011.1
20260504020035 17 49 4.8 8.0 0.00 0.00 0.00 94 1011.2
20260504014535 17 58 3.2 8.0 0.00 0.00 0.00 94 1011.2
20260504013023 17 73 3.2 6.4 0.00 0.00 0.00 94 1011.3
20260504011522 17 73 3.2 4.8 0.00 0.00 0.00 94 1011.4
20260504010020 17 74 3.2 6.4 0.00 0.00 0.00 94 1011.4
20260504004520 17 82 3.2 6.4 0.00 0.00 0.00 93 1011.4
20260504003049 17 77 3.2 4.8 0.00 0.00 0.00 93 1011.5
20260504001553 17 76 1.6 4.8 0.00 0.00 0.00 93 1011.5
20260504000048 17 76 4.8 9.7 0.00 0.00 0.00 92 1011.4
20260503234545 17 88 3.2 6.4 0.00 0.00 0.00 92 1011.5
20260503233044 17 87 3.2 9.7 0.00 0.00 0.00 92 1011.7
20260503231544 17 67 4.8 8.0 0.00 0.00 0.00 92 1011.6
20260503230049 17 64 4.8 9.7 0.00 0.00 0.00 91 1011.9
20260503224542 17 59 3.2 12.9 0.00 0.00 0.00 91 1012.0
20260503223040 17 77 4.8 8.0 0.00 0.00 0.00 90 1012.0
20260503221539 18 82 4.8 12.9 0.00 0.00 0.00 89 1012.1
20260503220037 18 82 6.4 12.9 0.00 0.00 0.00 88 1012.2
20260503214541 18 88 3.2 9.7 0.00 0.00 0.00 88 1012.2
20260503213037 18 84 4.8 9.7 0.00 0.00 0.00 87 1012.4
20260503211543 18 120 1.6 9.7 0.00 0.00 0.00 86 1012.4
20260503210006 18 135 3.2 12.9 0.00 0.00 0.00 86 1012.5
20260503204505 18 133 6.4 14.5 0.00 0.00 0.00 85 1012.3
20260503203103 18 142 8.0 14.5 0.00 0.00 0.00 85 1012.2
20260503201534 18 70 4.8 9.7 0.00 0.00 0.00 85 1012.1
20260503200046 18 112 3.2 9.7 0.00 0.00 0.00 85 1011.9
20260503194530 18 108 6.4 14.5 0.00 0.00 0.00 86 1011.6
20260503193035 18 103 9.7 17.7 0.00 0.00 0.00 85 1011.2
20260503193033 18 102 9.7 17.7 0.00 0.00 0.00 85 1011.2
20260503191529 18 119 6.4 16.1 0.00 0.00 0.00 84 1010.9
20260503190028 18 98 9.7 17.7 0.00 0.00 0.00 84 1010.8
20260503184535 18 93 11.3 17.7 0.00 0.00 0.00 83 1010.5
20260503183026 18 79 9.7 19.3 0.00 0.00 0.00 82 1010.3
20260503181524 18 89 11.3 20.9 0.00 0.00 0.00 82 1010.2
20260503180042 19 86 12.9 25.7 0.00 0.00 0.00 81 1010.1
20260503174526 19 107 12.9 22.5 0.00 0.00 0.00 79 1010.2
20260503173029 20 103 12.9 20.9 0.00 0.00 0.00 78 1010.1
20260503171518 20 88 12.9 20.9 0.00 0.00 0.00 77 1009.9